DW5522 Weather Reports


time (UTC)temp
C
wind
direction
speed
KPH
gust
KPH
rain 1hr
cm
rain 24hr
cm
rain mn
cm
humidity
%
barometer
mb
20191014125213 22 71 9.7 16.1 0.00 0.00 0.00 71 9.3
20191014124211 22 100 12.9 17.7 0.00 0.00 0.00 72 9.3
20191014123211 22 61 11.3 20.9 0.00 0.00 0.00 72 9.3
20191014122213 22 104 17.7 27.4 0.00 0.00 0.00 72 9.2
20191014115213 21 104 12.9 16.1 0.00 0.00 0.00 73 10.0
20191014115211 21 104 11.3 16.1 0.00 0.00 0.00 73 10.0
20191014114212 21 100 12.9 20.9 0.00 0.00 0.00 75 10.2
20191014112212 19 94 14.5 19.3 0.00 0.00 0.00 79 10.5
20191014105212 18 83 19.3 22.5 0.00 0.00 0.00 81 10.9
20191014094212 17 99 14.5 17.7 0.00 0.00 0.00 86 12.0
20191014093211 17 102 12.9 16.1 0.00 0.00 0.00 86 12.0
20191014085212 16 100 14.5 20.9 0.00 0.00 0.00 89 12.3
20191014084212 16 90 16.1 17.7 0.00 0.00 0.00 89 12.3
20191014083212 15 86 12.9 19.3 0.00 0.00 0.00 89 12.5
20191014082212 15 89 17.7 22.5 0.00 0.00 0.00 89 12.5
20191014080211 15 70 9.7 14.5 0.00 0.00 0.00 91 12.7
20191014075211 15 94 9.7 12.9 0.00 0.00 0.00 92 12.9
20191014074212 14 83 6.4 12.9 0.00 0.00 0.00 93 13.0
20191014073211 14 94 4.8 9.7 0.00 0.00 0.00 94 13.0
20191014070213 13 63 4.8 4.8 0.00 0.00 0.00 94 13.1
20191014065212 13 72 4.8 9.7 0.00 0.00 0.00 95 12.9
20191014063211 12 84 1.6 3.2 0.00 0.00 0.00 95 13.1
20191014062213 12 99 3.2 6.4 0.00 0.00 0.00 94 13.2
20191014060211 12 87 4.8 6.4 0.00 0.00 0.00 95 13.2
20191014055212 12 81 3.2 6.4 0.00 0.00 0.00 95 13.0
20191014045211 12 117 1.6 3.2 0.00 0.00 0.00 93 13.2
20191014043212 12 127 0.0 1.6 0.00 0.00 0.00 94 13.3
20191014042213 12 125 3.2 4.8 0.00 0.00 0.00 93 13.2
20191014040212 12 119 1.6 4.8 0.00 0.00 0.00 92 13.4
20191014035215 13 223 0.0 1.6 0.00 0.00 0.00 93 13.4
20191014035212 13 224 0.0 1.6 0.00 0.00 0.00 93 13.4
20191014025211 13 223 1.6 3.2 0.00 0.00 0.00 90 13.6
20191014023210 14 224 0.0 0.0 0.00 0.00 0.00 89 13.5
20191014022212 15 223 1.6 6.4 0.00 0.00 0.00 88 13.8
20191014015212 15 276 1.6 3.2 0.00 0.00 0.00 88 13.8
20191014012212 15 281 1.6 4.8 0.00 0.00 0.00 85 13.7
20191014010212 15 246 3.2 6.4 0.00 0.00 0.00 85 14.0
20191014005211 15 223 4.8 14.5 0.00 0.00 0.00 86 13.9
20191014004211 15 257 3.2 6.4 0.00 0.00 0.00 89 13.5
20191014000211 16 256 0.0 8.0 0.00 0.00 0.00 86 13.2
20191013233212 16 266 4.8 12.9 0.00 0.00 0.00 86 13.0
20191013230212 16 265 4.8 12.9 0.00 0.00 0.00 86 12.9
20191013225211 16 267 3.2 6.4 0.00 0.00 0.00 86 12.7
20191013224210 16 281 1.6 9.7 0.00 0.00 0.00 85 12.5
20191013223210 17 289 4.8 12.9 0.00 0.00 0.00 85 12.4
20191013220213 17 265 9.7 17.7 0.00 0.00 0.00 85 12.2
20191013214212 18 279 8.0 16.1 0.00 0.08 0.08 80 11.8
20191013213215 18 263 9.7 17.7 0.00 0.08 0.08 81 11.5
20191013210213 18 246 11.3 19.3 0.00 0.08 0.08 78 11.2
20191013202211 20 265 6.4 24.1 0.00 0.08 0.08 73 10.6
20191013200212 20 213 9.7 22.5 0.00 0.08 0.08 71 10.3
20191013194213 20 207 12.9 38.6 0.00 0.08 0.08 71 10.0
20191013193216 20 210 12.9 22.5 0.00 0.08 0.08 72 9.8
20191013192213 20 221 17.7 22.5 0.00 0.08 0.08 72 9.7
20191013192211 20 212 16.1 22.5 0.00 0.08 0.08 72 9.7
20191013190212 20 218 12.9 16.1 0.00 0.08 0.08 74 9.1
20191013185210 20 216 11.3 14.5 0.00 0.08 0.08 75 9.1
20191013180216 21 180 11.3 14.5 0.00 0.08 0.08 68 8.5
20191013175214 21 218 4.8 14.5 0.00 0.08 0.08 68 8.4
20191013175212 21 180 8.0 14.5 0.00 0.08 0.08 69 8.5
20191013170211 21 198 8.0 14.5 0.00 0.08 0.08 69 8.4
20191013165214 21 193 8.0 11.3 0.00 0.08 0.08 68 8.2
20191013165212 21 193 9.7 16.1 0.00 0.08 0.08 68 8.2
20191013154218 23 223 16.1 25.7 0.00 0.08 0.08 64 8.0
20191013152212 23 284 22.5 33.8 0.00 0.08 0.08 63 8.0
20191013152210 23 269 17.7 32.2 0.00 0.08 0.08 64 7.9
20191013150212 23 153 12.9 30.6 0.00 0.08 0.08 65 7.8
20191013145213 23 219 16.1 24.1 0.00 0.08 0.08 66 7.7
20191013144213 23 203 14.5 30.6 0.00 0.08 0.08 65 7.6
20191013144211 23 203 17.7 30.6 0.00 0.08 0.08 65 7.6
20191013142220 24 224 27.4 35.4 0.00 0.08 0.08 61 7.6
20191013142216 23 165 22.5 33.8 0.00 0.08 0.08 62 7.6
20191013140214 24 196 14.5 22.5 0.00 0.08 0.08 60 7.4
20191013135215 24 120 16.1 24.1 0.00 0.08 0.08 61 7.3
20191013134213 24 197 19.3 37.0 0.00 0.08 0.08 62 7.2
20191013133214 23 212 29.0 37.0 0.00 0.08 0.08 61 7.1
20191013130215 24 63 14.5 35.4 0.00 0.08 0.08 61 7.3
20191013130212 24 63 16.1 38.6 0.00 0.08 0.08 61 7.3